Wetbulb
60.01 60.13 60.19 60.43 60.19 60.08 60.05 60.08 60.02 59.79 59.49 59.57 59.61 59.55 59.58 59.34 59.46 59.39 59.41 59.18 58.70 58.37 58.61 58.62 59.16 60.11 62.11 59.14 58.26 69.68 73.44 73.01 69.54 72.41 64.63 64.06 62.17 61.77 58.68 58.44 57.88 56.56 57.31 58.24 59.22 59.51 60.40
60.30 60.47 60.57 60.62 60.47 60.45 60.21 60.03 59.79 59.26 58.58 59.10 59.35 59.12 59.08 58.87 58.95 58.96 58.63 58.52 57.96 57.94 58.22 58.86 59.70 59.35 59.94 53.54 60.96 66.02 68.96 68.65 67.99 67.99 64.39 63.71 61.88 61.90 59.28 58.29 57.53 58.23 57.77 57.87 58.42 58.05 58.78
60.72 60.82 60.89 60.73 60.51 60.65 60.24 60.15 59.73 59.03 58.31 58.26 58.73 58.70 58.66 58.65 58.67 58.44 58.23 57.60 57.39 57.64 58.41 59.81 61.19 61.26 59.01 56.57 62.67 65.25 67.50 66.88 67.34 66.23 62.41 62.91 62.81 60.41 60.22 57.75 60.21 59.29 56.90 58.05 58.24 58.61 57.51
61.00 61.03 61.09 60.99 60.71 60.49 60.40 60.26 60.18 59.29 58.34 57.84 58.27 58.46 58.32 58.10 58.00 57.95 57.37 56.70 57.01 57.77 59.39 61.47 60.89 62.47 57.00 60.89 61.49 59.69 61.97 63.49 63.37 61.35 60.53 61.98 60.95 59.36 59.34 60.26 58.22 56.30 56.27 53.01 57.22 58.33 57.88
61.32 61.29 61.04 61.06 60.89 59.90 59.03 59.39 59.15 58.82 58.03 57.64 57.74 58.11 57.69 57.45 57.51 57.07 56.01 55.74 57.27 59.16 60.86 60.61 63.23 62.38 55.90 58.64 58.06 60.58 61.11 58.32 59.45 60.56 62.02 61.82 60.40 56.46 57.02 55.05 53.62 54.49 50.34 52.06 54.38 58.70 57.10
61.22 61.13 61.18 60.82 60.05 59.06 58.13 57.64 58.08 58.20 57.95 57.73 57.54 57.13 57.04 57.03 56.76 56.06 55.27 55.86 60.17 57.95 61.01 63.28 62.55 57.94 58.42 55.34 58.43 59.25 60.91 60.10 57.51 58.06 59.18 59.21 58.50 55.05 54.98 53.33 48.44 51.15 51.64 52.86 53.19 56.74 57.46
61.24 61.00 60.54 59.92 59.57 58.57 58.11 57.94 58.04 57.97 58.00 57.77 57.56 56.89 56.70 56.58 56.01 55.31 56.18 61.08 57.62 57.76 58.64 54.51 55.05 55.03 55.77 58.25 59.44 58.15 58.97 58.15 57.69 56.48 53.10 56.66 54.05 52.19 53.98 55.25 55.23 54.46 53.01 52.23 54.11 56.23 56.13
60.54 60.13 59.86 59.32 58.85 58.29 58.14 57.92 57.66 57.60 57.53 57.49 57.36 56.73 56.45 56.18 55.28 54.69 56.76 56.32 54.88 55.85 53.68 55.83 55.42 55.90 57.20 57.40 55.13 57.04 59.16 55.08 54.77 51.88 54.19 52.97 51.12 54.82 55.82 54.94 53.24 52.61 51.91 52.23 54.76 55.94 55.37
60.15 59.59 59.26 58.82 58.44 58.19 57.92 57.76 57.56 57.32 57.20 56.94 56.98 56.50 56.01 55.10 54.24 59.74 57.49 55.96 59.20 58.45 53.51 54.63 55.60 55.15 55.74 56.86 54.34 55.32 57.51 56.34 54.43 53.37 53.59 51.73 52.92 54.89 53.29 52.52 51.66 52.32 51.72 51.66 51.65 54.58 55.72
59.54 59.05 58.65 58.43 58.39 57.98 57.84 57.53 57.53 57.25 56.96 56.58 56.54 56.13 55.28 53.06 55.10 60.59 58.29 59.51 59.83 58.27 52.03 51.99 53.55 55.30 56.23 56.68 53.80 57.60 58.06 55.94 54.15 52.07 53.02 52.47 54.53 52.82 52.15 51.25 52.09 49.60 53.47 52.67 51.80 51.35 48.54
58.77 58.63 58.39 58.24 57.80 57.48 57.18 56.95 56.63 56.55 56.53 56.26 56.19 55.64 54.20 52.19 58.08 59.34 60.15 60.84 59.26 57.51 46.33 51.61 53.20 57.87 56.60 53.66 54.53 55.47 58.15 56.33 52.64 52.65 52.85 51.45 51.85 51.66 51.02 51.54 53.10 50.86 53.38 52.37 52.34 51.15 51.44
58.18 58.20 57.97 57.38 56.91 56.57 56.17 55.87 55.43 55.43 55.32 55.50 55.40 54.63 53.30 58.64 60.30 60.35 60.44 59.69 57.68 49.65 45.15 49.86 52.10 52.08 52.39 54.00 53.43 54.76 55.33 58.12 56.48 53.78 54.83 53.40 56.41 54.38 52.97 53.26 53.17 53.55 52.08 52.30 52.37 50.86 46.15
57.57 57.47 57.18 56.90 56.53 56.33 55.81 55.47 55.29 55.22 55.10 55.24 54.49 53.18 53.27 58.84 58.09 59.79 59.66 57.28 50.33 47.08 51.27 49.37 50.04 51.68 50.95 50.59 51.32 52.08 52.10 53.05 51.37 49.93 51.07 52.73 53.30 54.69 54.32 51.66 53.96 52.43 50.17 45.40 44.74 44.90 44.18
57.35 57.11 56.90 56.65 56.28 55.99 55.77 55.48 55.22 55.22 55.28 54.69 53.16 51.85 57.72 59.03 60.92 60.08 58.72 53.46 47.23 49.48 48.69 51.94 51.27 51.36 49.32 50.63 51.04 50.85 51.02 50.98 53.55 52.57 50.86 49.02 47.58 53.24 55.15 53.48 52.13 51.74 50.56 45.82 41.47 42.75 44.69
57.24 56.97 57.06 56.62 56.05 55.62 55.42 55.28 54.77 54.97 55.10 53.61 51.76 61.55 59.35 61.44 61.55 60.58 54.68 49.39 50.59 49.96 50.70 49.96 51.34 49.74 49.79 50.68 49.76 50.25 50.58 50.12 51.72 53.54 49.73 48.81 48.78 54.25 54.62 55.38 54.65 51.73 48.75 51.82 47.45 48.44 44.60
57.70 57.18 57.16 56.56 55.67 55.24 55.20 54.88 54.49 55.10 54.53 52.88 55.93 58.88 59.08 60.30 61.55 58.73 52.20 48.63 50.25 51.69 51.85 51.69 48.89 49.74 47.89 49.53 49.53 49.78 49.25 51.88 50.58 54.06 55.27 52.28 47.86 53.27 54.05 55.20 54.88 54.01 54.57 47.60 47.76 42.14 40.54
57.51 57.41 57.17 56.20 55.57 55.14 55.08 55.01 54.65 55.08 53.13 52.49 57.05 55.56 59.50 60.68 60.05 55.54 50.06 51.66 50.91 53.44 53.35 51.30 50.21 49.47 49.93 49.49 49.88 49.69 49.27 51.14 53.39 53.25 54.66 52.71 51.35 51.22 53.63 51.67 50.92 51.72 51.32 49.81 51.27 49.95 43.52
57.47 57.15 56.90 56.16 55.43 55.00 54.83 54.49 54.14 54.12 51.72 54.09 56.95 52.78 60.56 60.72 53.15 55.49 51.51 51.55 46.37 52.19 54.57 52.97 52.58 51.67 50.49 50.92 50.48 50.13 49.25 51.49 54.48 54.15 50.90 53.62 51.28 47.62 49.48 54.11 55.56 53.64 50.26 48.73 48.29 43.06 46.05
57.56 57.12 56.88 56.44 55.88 55.26 54.79 54.39 54.18 54.10 51.79 55.33 54.84 54.88 60.29 58.41 50.25 52.47 53.26 50.71 51.35 51.45 52.52 52.79 52.20 52.81 53.85 51.63 49.08 51.13 51.74 54.04 54.45 53.62 52.47 53.42 49.31 44.98 47.32 51.34 53.50 52.04 51.21 49.86 53.68 52.02 48.91
57.41 57.30 57.06 56.74 56.24 55.47 54.87 54.77 54.45 54.98 53.12 54.51 54.89 52.01 56.12 56.41 55.50 52.07 51.18 50.95 49.77 53.07 52.01 52.90 53.34 54.35 52.97 51.91 54.13 51.41 51.82 53.85 54.61 54.84 57.52 56.55 50.91 48.91 45.03 48.26 51.12 48.55 50.05 52.66 52.06 48.56 48.13
57.24 57.15 56.87 56.88 56.68 55.45 54.88 54.75 54.85 55.64 54.02 54.41 57.16 54.83 53.92 50.66 53.26 52.65 51.98 51.19 49.18 49.09 52.97 53.39 52.26 52.62 52.15 50.30 51.27 50.80 52.91 53.70 54.55 58.48 55.21 54.02 49.47 51.29 51.54 51.65 51.01 50.64 49.94 50.04 49.95 49.89 45.44
56.67 57.09 56.73 56.83 56.49 55.49 54.68 54.51 54.55 55.42 53.10 56.07 53.87 53.76 57.23 52.58 53.25 51.50 48.17 50.00 49.11 49.88 50.06 50.09 51.19 52.34 52.85 50.84 51.47 50.20 52.60 52.54 51.24 53.33 52.63 54.61 49.68 51.51 49.40 51.03 50.62 49.16 50.33 50.54 50.86 50.80 52.47
55.24 56.83 56.81 56.65 56.17 55.50 54.64 53.89 54.57 55.20 52.51 57.29 59.53 57.33 53.79 50.89 52.34 50.73 50.45 50.74 50.06 50.76 51.36 51.76 51.24 51.58 51.06 51.76 54.59 55.46 54.73 54.15 53.50 52.39 52.98 54.10 52.18 50.04 46.54 50.60 50.03 47.19 49.99 51.45 51.48 54.67 53.89
54.49 55.62 56.76 56.65 56.12 55.36 54.62 53.93 54.47 54.75 52.23 58.31 58.33 56.55 52.92 49.91 52.12 51.35 51.07 50.50 49.47 50.53 49.66 51.60 52.20 50.96 53.75 56.86 56.13 55.26 54.73 54.83 55.04 56.15 56.96 53.58 52.77 51.48 47.55 50.04 42.06 51.15 57.08 55.11 52.83 53.96 56.28
52.39 53.92 55.74 56.58 55.94 55.20 54.64 54.21 54.39 55.22 53.02 56.70 59.64 56.15 53.99 50.10 52.15 51.74 51.34 51.10 51.70 52.58 51.13 51.19 52.05 54.18 56.01 53.95 50.45 49.88 50.60 52.60 54.34 54.66 56.11 56.07 53.19 48.57 45.23 45.89 49.71 52.15 52.54 55.46 53.72 53.18 58.24
51.17 52.14 54.38 56.26 55.96 55.20 54.43 54.44 54.42 55.14 52.94 55.47 58.98 59.59 55.44 51.30 51.81 53.43 51.55 51.74 49.81 50.51 51.11 52.54 54.82 55.63 54.60 50.99 49.68 45.96 45.14 48.35 48.33 50.92 55.91 56.58 56.52 51.41 48.90 44.48 42.42 52.27 57.71 59.90 58.46 50.52 58.38
50.64 51.79 53.49 54.99 55.96 55.24 54.35 54.62 54.08 55.24 52.69 54.57 59.65 60.31 55.75 51.61 54.40 54.39 51.35 51.00 53.61 51.71 50.13 51.87 52.70 52.52 54.34 49.16 47.17 46.45 46.70 51.90 47.30 45.69 46.94 49.10 50.70 48.73 48.46 46.00 49.60 55.78 58.10 60.23 48.55 50.44 58.06
49.69 51.01 52.95 54.08 55.64 54.87 54.47 54.78 54.18 55.47 54.41 53.99 57.99 60.95 55.39 52.22 54.11 55.19 55.09 52.48 52.61 52.21 48.82 53.48 51.60 52.18 50.42 48.15 47.47 48.14 48.39 50.44 48.36 50.83 50.46 48.09 48.15 48.53 49.81 46.38 43.71 57.94 57.90 52.21 57.54 59.25 58.73
49.66 50.53 52.40 53.09 55.00 54.32 54.71 54.69 54.21 55.20 55.32 53.26 54.53 59.00 58.98 53.26 53.82 57.33 57.29 57.36 56.46 55.70 53.52 53.47 52.56 52.51 52.63 50.16 52.43 52.23 49.33 49.92 50.33 45.83 52.67 49.38 52.24 49.92 51.07 50.76 58.31 59.70 59.47 61.07 60.98 58.26 59.01
MSLP
1023.71 1023.44 1023.06 1022.68 1022.32 1021.91 1021.53 1021.15 1020.73 1020.27 1019.77 1019.20 1018.58 1017.94 1017.34 1016.70 1015.96 1015.18 1014.48 1013.83 1013.21 1012.67 1012.23 1011.70 1011.31 1011.09 1010.68 1007.73 1004.73 1005.09 1005.77 1006.19 1006.28 1005.95 1004.23 1003.59 1003.01 1002.54 1001.70 1000.75 1000.06 999.46 999.23 998.59 997.87 997.48 997.20
1023.81 1023.49 1023.11 1022.67 1022.23 1021.81 1021.42 1021.05 1020.65 1020.22 1019.76 1019.20 1018.56 1017.90 1017.31 1016.65 1015.91 1015.07 1014.27 1013.52 1012.72 1012.02 1011.69 1011.21 1010.86 1010.95 1009.22 1005.59 1003.98 1004.17 1004.59 1005.73 1004.98 1004.74 1003.69 1003.15 1002.50 1002.08 1001.65 1001.05 1000.45 999.73 999.21 998.58 998.03 997.33 997.00
1023.74 1023.37 1022.98 1022.61 1022.17 1021.75 1021.34 1020.99 1020.57 1020.14 1019.71 1019.15 1018.48 1017.88 1017.30 1016.56 1015.80 1014.85 1014.05 1013.25 1012.36 1011.61 1011.08 1010.59 1010.37 1009.99 1006.82 1004.19 1003.80 1004.00 1004.32 1004.42 1003.91 1003.75 1003.13 1002.71 1002.62 1002.23 1001.71 1000.70 1000.08 999.73 999.06 998.14 997.21 996.43 995.97
1023.73 1023.37 1023.00 1022.61 1022.23 1021.92 1021.52 1021.07 1020.55 1020.08 1019.68 1019.22 1018.56 1017.85 1017.13 1016.30 1015.25 1013.98 1013.16 1012.46 1011.65 1011.07 1010.58 1010.15 1010.13 1008.92 1004.89 1003.91 1003.93 1004.07 1003.94 1003.47 1003.56 1003.56 1003.43 1003.01 1002.70 1002.31 1001.91 1001.26 1000.37 999.67 998.84 997.32 996.14 995.35 995.90
1023.69 1023.37 1023.02 1022.68 1022.32 1021.99 1021.58 1021.04 1020.60 1020.05 1019.46 1018.90 1018.26 1017.58 1016.80 1015.70 1014.72 1013.58 1012.54 1011.59 1010.88 1010.42 1010.25 1010.04 1009.44 1007.08 1003.63 1004.64 1003.76 1003.16 1003.16 1003.01 1002.74 1002.82 1002.91 1003.06 1002.95 1002.25 1001.72 1000.86 999.87 998.86 997.48 996.40 995.60 994.90 995.31
1023.64 1023.34 1023.04 1022.71 1022.35 1021.95 1021.45 1021.03 1020.52 1019.90 1019.32 1018.70 1017.99 1017.25 1016.56 1015.68 1014.63 1013.25 1012.09 1010.48 1010.04 1010.22 1009.94 1008.79 1007.57 1006.03 1003.88 1003.52 1003.36 1003.22 1003.02 1003.10 1002.69 1002.37 1002.56 1002.78 1002.08 1001.42 1000.62 1000.15 998.52 997.60 996.43 995.39 994.78 994.51 994.94
1023.52 1023.24 1022.95 1022.57 1022.21 1021.87 1021.43 1020.95 1020.41 1019.86 1019.18 1018.59 1017.97 1017.20 1016.46 1015.57 1014.44 1013.05 1012.29 1008.93 1009.10 1008.71 1006.53 1006.10 1005.25 1004.38 1003.60 1003.59 1003.29 1002.67 1002.67 1002.63 1002.77 1002.37 1001.47 1000.99 1000.72 999.82 999.20 998.69 998.29 997.72 997.22 996.41 995.79 995.32 995.17
1023.48 1023.20 1022.89 1022.51 1022.07 1021.65 1021.21 1020.70 1020.18 1019.61 1019.01 1018.53 1017.95 1017.23 1016.47 1015.52 1014.31 1013.00 1012.48 1009.58 1010.25 1010.15 1006.99 1005.41 1004.93 1004.22 1003.77 1003.66 1002.44 1002.13 1002.59 1002.08 1001.90 1001.34 1000.70 1000.31 999.20 999.10 999.00 998.64 998.07 997.67 997.03 996.27 995.86 995.63 995.51
1023.32 1023.00 1022.65 1022.28 1021.91 1021.58 1021.15 1020.69 1020.30 1019.76 1019.17 1018.67 1018.00 1017.30 1016.41 1015.24 1014.13 1012.54 1010.81 1010.52 1010.24 1009.72 1007.48 1004.60 1004.05 1003.44 1003.05 1003.09 1002.11 1001.60 1001.97 1001.31 1000.98 1000.26 999.57 998.90 998.11 998.04 998.19 997.92 997.82 997.35 996.96 996.35 995.80 995.59 995.01
1023.23 1022.93 1022.63 1022.37 1022.09 1021.73 1021.35 1020.93 1020.50 1019.90 1019.20 1018.53 1017.83 1017.12 1016.29 1014.94 1014.18 1011.36 1010.11 1010.43 1010.00 1009.79 1006.37 1003.88 1003.20 1002.84 1002.61 1002.18 1001.70 1001.93 1001.84 1001.78 1000.65 999.99 999.59 998.89 998.09 998.05 997.95 997.41 997.24 996.63 996.56 996.11 995.72 995.47 994.43
1023.11 1022.89 1022.70 1022.50 1022.18 1021.78 1021.36 1020.88 1020.35 1019.69 1018.89 1018.13 1017.39 1016.64 1016.22 1016.04 1013.95 1010.73 1010.78 1010.32 1010.13 1009.46 1004.97 1003.87 1002.64 1003.03 1002.35 1002.13 1001.57 1001.24 1002.01 1001.42 1000.71 1000.05 999.86 998.68 998.33 998.01 997.65 997.30 997.14 996.57 996.44 996.05 995.79 995.13 994.59
1023.10 1022.88 1022.67 1022.44 1022.08 1021.62 1021.16 1020.63 1020.06 1019.44 1018.69 1017.85 1016.97 1016.41 1015.93 1014.26 1013.04 1011.30 1010.84 1010.36 1009.76 1007.39 1003.75 1003.21 1002.97 1002.26 1001.55 1001.29 1001.25 1001.38 1001.05 1001.18 1000.68 1000.24 999.30 998.80 998.32 997.95 997.72 997.59 997.33 996.98 996.68 996.29 995.86 995.32 994.03
1022.91 1022.74 1022.53 1022.26 1021.95 1021.55 1021.06 1020.55 1019.95 1019.37 1018.63 1017.65 1016.71 1016.21 1015.96 1013.64 1011.23 1011.05 1010.71 1009.39 1006.93 1004.44 1004.17 1003.11 1002.58 1002.29 1001.77 1001.34 1001.07 1001.26 1000.75 1000.07 1000.37 1000.22 998.91 998.63 997.28 997.13 997.52 997.23 996.77 996.59 996.43 995.58 995.01 994.57 993.57
1022.80 1022.67 1022.46 1022.21 1021.86 1021.48 1021.07 1020.59 1019.96 1019.23 1018.48 1017.54 1016.31 1015.64 1013.90 1012.67 1011.82 1011.05 1010.05 1007.74 1005.22 1004.12 1003.67 1003.73 1003.18 1002.29 1001.68 1002.01 1001.21 1001.33 1000.81 1000.06 1000.32 1001.02 1000.26 998.74 998.01 997.67 997.64 997.37 996.88 996.72 996.46 995.68 994.80 994.02 993.20
1022.62 1022.48 1022.31 1022.12 1021.81 1021.43 1021.00 1020.47 1019.84 1019.11 1018.32 1017.37 1015.42 1012.47 1011.64 1010.93 1011.39 1011.01 1009.09 1006.01 1004.04 1004.41 1004.72 1004.03 1003.02 1002.18 1001.80 1002.11 1002.32 1001.51 1000.86 1000.81 1001.21 1001.74 1001.66 1000.28 999.11 999.20 998.41 997.35 997.25 996.38 996.17 995.86 995.56 995.26 994.57
1022.39 1022.24 1022.08 1021.90 1021.66 1021.29 1020.82 1020.25 1019.57 1018.79 1017.93 1017.37 1015.33 1011.72 1009.96 1010.63 1010.70 1009.99 1008.06 1005.72 1005.21 1005.59 1005.44 1004.72 1003.36 1003.39 1002.41 1002.33 1002.11 1001.68 1001.41 1001.47 1001.85 1002.32 1002.25 1001.45 1000.09 999.56 998.55 997.97 997.11 997.06 996.98 996.32 996.40 996.04 995.75
1022.12 1021.96 1021.80 1021.65 1021.42 1021.11 1020.66 1020.17 1019.54 1018.81 1017.73 1016.90 1015.09 1010.64 1010.01 1010.00 1009.99 1008.76 1006.46 1005.38 1006.02 1006.01 1006.02 1005.10 1004.20 1003.83 1003.40 1003.29 1003.10 1002.35 1001.90 1002.12 1002.51 1003.04 1002.81 1002.05 1001.04 1000.09 999.35 998.02 997.25 997.41 997.61 998.41 998.68 998.15 998.87
1021.66 1021.56 1021.44 1021.32 1021.14 1020.92 1020.56 1020.14 1019.63 1019.05 1017.82 1015.44 1013.55 1009.98 1009.80 1009.75 1008.69 1006.88 1005.90 1006.53 1008.02 1006.14 1006.06 1005.53 1005.51 1004.77 1004.26 1004.02 1003.67 1003.18 1002.63 1002.65 1003.33 1003.70 1003.21 1002.81 1002.40 1001.07 999.80 998.75 998.68 998.08 1000.51 1000.86 999.78 1001.11 1001.09
1021.38 1021.27 1021.17 1021.06 1020.98 1020.81 1020.59 1020.20 1019.85 1019.48 1019.24 1017.56 1013.20 1010.26 1009.16 1009.35 1007.33 1005.82 1006.29 1006.85 1007.00 1006.26 1005.79 1005.49 1005.13 1005.17 1004.86 1004.83 1004.56 1003.76 1003.53 1003.74 1004.01 1004.12 1004.05 1004.32 1003.13 1001.74 999.86 998.33 999.59 1000.09 1001.18 1002.16 1000.54 1000.16 1000.50
1021.02 1020.96 1020.87 1020.79 1020.73 1020.66 1020.50 1020.17 1019.90 1019.65 1019.53 1018.72 1013.91 1009.77 1008.34 1008.59 1008.05 1007.67 1006.66 1006.61 1006.33 1006.61 1006.60 1006.19 1005.80 1005.52 1005.40 1004.93 1004.68 1004.32 1004.04 1003.93 1004.10 1004.23 1004.89 1004.83 1003.61 1002.68 1001.27 1000.00 999.71 999.67 1000.13 999.25 999.09 999.17 1000.48
1020.68 1020.59 1020.56 1020.51 1020.42 1020.43 1020.38 1020.14 1019.85 1019.59 1019.44 1018.89 1013.50 1010.53 1010.57 1008.15 1007.58 1007.92 1007.78 1007.21 1006.53 1006.08 1006.50 1006.46 1006.02 1005.68 1005.41 1005.21 1005.07 1004.51 1004.14 1003.70 1004.07 1004.26 1004.49 1004.33 1003.58 1003.01 1002.11 1001.03 1000.05 999.01 998.57 998.19 997.90 998.40 1000.02
1020.40 1020.19 1020.11 1020.12 1020.13 1020.15 1020.14 1019.99 1019.71 1019.47 1019.28 1017.66 1013.78 1012.03 1010.84 1009.95 1009.39 1008.96 1008.19 1007.44 1006.91 1006.36 1006.63 1006.34 1005.94 1005.81 1005.56 1005.85 1005.54 1005.08 1004.84 1004.78 1004.69 1004.64 1004.38 1004.29 1003.72 1003.39 1002.27 1001.30 1000.04 998.86 998.23 997.71 997.27 997.69 998.31
1020.03 1019.83 1019.74 1019.71 1019.73 1019.82 1019.85 1019.78 1019.59 1019.43 1019.46 1015.83 1014.04 1013.60 1012.70 1010.28 1009.19 1008.70 1007.49 1007.11 1007.15 1007.33 1007.23 1007.06 1006.64 1006.44 1006.27 1006.02 1006.47 1006.14 1005.84 1005.30 1004.67 1004.18 1003.89 1003.90 1003.70 1003.41 1001.86 1000.85 999.74 998.31 997.30 997.34 997.23 997.98 998.64
1019.70 1019.45 1019.26 1019.27 1019.33 1019.43 1019.53 1019.51 1019.43 1019.23 1019.21 1017.06 1015.00 1014.53 1012.54 1010.14 1008.66 1008.38 1007.82 1008.41 1008.15 1007.96 1007.80 1007.35 1007.52 1007.30 1007.09 1006.79 1007.15 1006.06 1004.80 1003.82 1003.12 1002.70 1003.13 1003.56 1003.95 1003.48 1002.20 1001.33 1000.10 998.75 998.46 998.53 998.42 998.87 999.63
1019.41 1019.16 1018.92 1018.79 1018.87 1019.10 1019.15 1019.18 1019.21 1019.05 1019.00 1017.82 1015.54 1014.97 1012.93 1010.93 1009.40 1008.73 1008.71 1008.58 1008.45 1008.41 1008.24 1008.07 1007.95 1007.78 1007.68 1007.56 1006.77 1005.18 1003.75 1002.29 1003.09 1003.68 1003.64 1003.60 1003.98 1003.17 1002.83 1001.02 1000.37 999.50 1002.41 1001.09 1000.48 1000.23 1001.64
1019.03 1018.87 1018.61 1018.39 1018.44 1018.65 1018.87 1018.87 1018.99 1018.86 1018.92 1018.30 1015.87 1015.53 1014.50 1012.34 1009.85 1009.82 1009.33 1008.98 1008.59 1007.94 1007.54 1007.28 1007.53 1008.00 1007.99 1007.30 1005.97 1004.84 1003.36 1002.48 1002.83 1003.50 1004.14 1003.64 1004.20 1004.08 1002.92 1002.37 1001.00 1001.35 1001.83 1002.26 1001.92 1001.66 1003.54
1018.63 1018.42 1018.20 1018.03 1018.00 1018.28 1018.51 1018.62 1018.72 1018.71 1018.85 1018.46 1015.92 1016.44 1015.28 1013.00 1010.99 1010.45 1010.07 1009.46 1008.79 1008.94 1008.24 1007.68 1007.55 1007.85 1007.61 1006.61 1005.40 1004.17 1002.86 1003.26 1003.29 1003.79 1004.87 1004.28 1004.04 1003.79 1003.33 1002.79 1001.86 1002.98 1002.81 1002.35 1002.37 1004.54 1005.23
1018.21 1018.07 1017.78 1017.63 1017.58 1017.86 1018.21 1018.43 1018.47 1018.48 1018.67 1018.47 1015.77 1016.14 1015.78 1013.82 1011.69 1011.30 1011.16 1010.72 1009.93 1009.67 1009.00 1008.43 1008.34 1007.67 1007.15 1006.23 1005.24 1004.09 1003.18 1004.30 1004.83 1004.17 1004.34 1004.11 1003.97 1003.36 1003.24 1002.75 1002.75 1003.73 1003.11 1003.69 1004.69 1005.31 1005.39
1017.70 1017.58 1017.45 1017.21 1017.16 1017.54 1017.89 1018.14 1018.23 1018.33 1018.40 1018.79 1016.54 1016.03 1015.96 1015.36 1012.39 1012.21 1011.82 1011.38 1010.86 1010.53 1010.11 1009.44 1008.88 1008.71 1007.52 1006.58 1005.34 1004.35 1004.01 1004.46 1004.39 1004.51 1005.31 1004.52 1004.35 1004.35 1004.54 1004.45 1004.17 1004.37 1004.78 1005.15 1005.23 1005.25 1004.71
Wind_Speed
11 12 12 12 12 12 13 15 16 17 19 20 21 21 22 23 24 24 24 23 22 21 19 18 15 11 8 10 11 10 11 10 17 16 14 15 14 13 17 15 15 15 16 20 18 18 16
11 12 12 12 13 13 13 14 16 19 21 20 21 22 23 24 24 25 24 24 24 22 20 18 12 6 11 14 5 7 8 14 15 18 17 16 14 14 16 19 18 18 19 20 21 21 19
12 13 13 13 13 14 14 13 15 18 22 22 21 22 22 23 24 24 23 23 22 22 20 15 9 8 11 11 3 5 12 15 15 15 14 14 15 18 15 17 14 14 19 20 20 20 19
11 12 13 14 14 15 16 17 17 15 19 21 20 21 22 23 25 27 26 24 23 19 13 9 5 12 8 6 5 6 11 12 10 13 15 15 14 15 19 20 20 21 22 20 17 16 7
11 12 13 13 12 13 15 14 16 17 17 19 21 21 23 26 28 29 29 28 24 9 8 5 8 10 4 5 9 5 8 14 16 13 11 11 13 18 19 19 18 20 22 23 20 17 4
11 11 11 11 12 13 15 16 15 16 17 17 18 21 23 26 28 30 31 29 6 7 8 9 9 9 5 5 8 8 10 9 7 13 10 12 15 16 17 16 18 21 20 21 21 10 12
10 10 10 12 12 12 13 14 16 17 18 18 19 20 23 25 28 30 20 7 7 9 14 8 6 5 5 6 4 4 3 12 13 14 15 17 13 17 21 21 23 23 23 26 25 23 14
9 9 10 11 12 13 15 16 17 19 19 19 19 20 23 24 27 30 14 6 8 7 7 4 2 6 4 3 7 6 4 7 14 15 16 17 18 16 17 21 23 22 25 25 24 21 22
9 10 11 12 13 14 15 16 17 18 18 18 18 19 22 25 27 16 6 8 7 7 9 10 2 5 1 6 4 2 6 3 11 13 13 15 16 14 9 14 19 20 23 24 26 23 24
9 10 10 12 13 14 15 16 16 17 18 18 18 19 20 27 10 9 1 6 8 4 8 10 8 5 6 4 5 1 3 7 9 11 11 13 13 11 15 20 17 21 21 22 22 21 16
10 10 10 11 12 13 15 16 17 19 20 20 20 20 19 12 11 5 7 9 9 5 7 4 5 4 7 8 8 9 1 8 12 12 9 13 15 14 14 17 16 20 20 21 23 22 21
8 8 9 11 13 14 16 18 21 22 23 22 22 21 22 6 7 7 9 9 7 9 2 6 2 2 8 11 4 7 7 11 5 10 14 12 11 14 13 14 18 16 18 18 21 17 19
8 10 10 11 12 14 15 16 18 21 21 22 23 23 13 9 7 9 8 8 9 8 4 4 2 5 5 3 4 4 6 6 6 10 13 14 7 6 6 12 14 16 15 13 15 15 16
8 9 10 11 12 13 14 15 17 19 19 22 26 22 6 8 8 8 8 10 7 8 1 2 5 9 4 5 4 6 7 10 7 8 14 11 12 15 17 15 14 14 18 14 21 17 16
9 10 10 10 11 12 14 14 17 19 18 21 31 7 7 4 3 7 9 9 6 4 4 6 10 8 2 4 6 5 3 6 6 8 9 13 13 18 21 9 15 16 13 18 23 22 18
10 10 10 9 10 12 14 14 18 20 20 19 9 8 4 1 5 8 9 11 3 5 7 7 10 1 6 4 8 3 3 8 5 11 10 16 18 17 17 17 15 18 17 15 9 18 19
10 10 9 9 10 12 14 15 17 19 22 22 7 6 7 4 6 8 9 7 1 2 6 6 3 7 4 5 6 7 4 6 7 10 14 16 13 15 18 18 18 10 13 2 25 11 11
10 10 10 9 9 11 13 15 15 16 24 11 6 6 5 4 8 4 7 2 4 8 7 8 6 9 8 6 8 9 5 5 13 11 15 13 15 16 22 21 17 14 13 20 11 8 8
11 11 11 10 9 10 11 13 14 12 13 9 6 8 6 6 7 6 6 9 5 7 7 5 6 4 6 8 6 7 7 6 9 11 11 12 10 15 14 16 12 13 7 13 24 12 20
11 11 11 11 10 8 10 11 12 11 9 7 7 5 6 6 5 9 7 10 7 6 11 8 10 9 11 10 10 8 10 11 7 12 5 8 14 14 15 23 22 11 16 22 14 13 10
12 11 11 10 9 8 9 11 10 11 9 7 5 3 6 6 3 6 4 10 10 7 10 5 9 12 12 9 12 14 13 10 12 5 11 13 14 16 18 23 24 23 21 20 19 8 10
13 12 11 11 10 9 9 10 10 11 11 7 6 5 1 10 7 11 7 11 11 12 5 13 10 13 5 11 12 14 14 13 16 16 15 14 17 18 17 22 22 24 22 24 17 19 12
12 12 11 11 10 9 10 9 8 9 7 5 2 5 7 5 10 8 10 7 7 6 9 12 14 12 11 10 14 15 17 18 20 19 16 14 12 14 18 18 19 18 14 15 8 11 14
12 11 12 11 10 10 10 10 8 8 7 10 6 7 8 11 9 10 9 7 11 10 12 12 7 10 12 12 15 18 20 21 22 13 9 11 10 11 14 16 17 6 11 8 6 9 4
13 13 12 11 11 10 10 10 9 8 8 9 4 7 8 11 12 8 11 12 11 10 13 15 14 14 12 12 14 15 14 16 4 6 5 7 9 7 11 13 16 7 17 14 8 7 10
13 13 12 12 12 11 11 11 10 7 8 8 7 4 7 8 6 11 9 10 9 9 11 11 6 6 9 11 11 13 12 14 1 1 7 9 6 8 12 12 13 8 11 8 9 2 11
13 13 12 12 12 12 11 12 10 8 9 8 3 3 6 9 14 9 8 9 6 6 8 8 3 8 11 10 11 12 13 3 8 3 4 8 6 10 12 13 9 10 15 8 7 7 11
14 13 12 11 12 12 12 12 10 9 9 8 2 2 7 9 13 11 12 12 9 7 8 5 9 11 8 9 9 11 7 8 4 3 8 7 7 3 7 11 6 17 11 6 6 9 7
11 12 12 10 13 12 11 11 9 9 10 10 6 3 4 7 12 16 14 15 14 14 11 6 9 6 6 7 6 5 5 5 6 6 11 5 5 7 5 5 8 8 5 6 7 4 4
Wind_Direction
5 1 358 354 351 351 352 352 351 348 346 343 339 337 337 334 331 327 325 324 321 318 313 305 300 294 266 224 252 113 144 156 178 219 228 218 229 236 257 274 286 272 273 279 288 279 276
355 351 348 347 347 344 345 345 347 348 345 341 336 335 333 330 326 321 321 320 318 311 308 301 290 277 239 256 74 137 144 169 190 215 226 230 241 257 277 282 279 293 295 293 286 281 277
346 344 343 340 337 332 333 332 338 342 343 339 333 331 328 325 322 316 317 317 309 306 304 297 266 238 263 260 26 159 165 185 209 214 234 230 251 260 263 268 269 284 275 274 273 263 258
336 336 335 331 330 338 341 339 331 331 337 334 329 327 328 324 324 322 322 318 309 305 290 292 219 238 271 64 333 232 245 240 221 247 255 273 282 267 266 275 273 268 267 272 267 270 246
329 333 332 334 342 341 340 339 338 329 335 336 333 328 330 330 327 321 321 315 306 292 255 240 228 233 167 139 219 189 238 229 228 232 241 259 247 251 256 251 257 253 259 262 272 280 231
323 322 322 329 334 336 342 343 330 324 327 328 331 336 332 327 322 320 323 301 282 279 219 231 267 249 201 339 322 293 265 248 240 255 227 223 236 241 235 247 261 274 280 271 268 265 271
320 321 330 336 334 335 332 331 335 332 332 332 329 335 328 325 321 316 328 300 214 191 233 329 7 305 60 340 210 193 240 214 231 243 243 224 243 238 256 251 264 271 273 283 284 288 263
332 333 334 337 338 339 338 338 337 334 333 332 329 324 324 320 315 310 290 29 44 337 293 157 242 254 220 316 256 156 225 222 202 244 242 239 244 250 266 273 273 271 276 266 271 275 273
336 338 341 343 344 341 339 338 335 330 326 323 319 319 321 318 314 290 358 41 342 322 256 172 259 273 358 261 321 6 257 286 265 263 257 261 276 293 271 265 274 264 263 273 278 283 277
340 341 343 342 340 338 335 332 329 325 320 320 320 322 325 321 294 345 79 352 328 347 264 136 187 135 249 302 242 70 301 298 278 273 315 292 294 299 287 278 264 265 271 275 269 265 266
346 343 342 341 338 336 333 332 333 330 325 323 321 324 327 329 322 298 360 320 325 243 262 95 125 43 256 265 347 157 243 251 267 311 294 282 314 293 276 286 283 283 291 285 275 272 271
334 337 338 340 337 333 333 333 335 335 330 324 321 323 330 197 216 296 307 306 251 232 157 139 272 290 275 191 184 284 235 203 221 264 248 251 252 244 276 294 289 294 288 274 266 263 258
327 331 331 330 326 324 329 329 329 329 324 318 317 318 306 307 338 332 307 257 242 260 138 108 344 306 283 328 246 290 290 252 333 331 340 307 292 318 287 281 282 256 261 269 245 241 249
306 309 309 314 324 324 320 320 321 320 319 316 313 312 191 274 295 303 269 256 261 46 321 84 282 264 297 347 166 297 268 255 114 343 319 349 316 13 350 305 318 296 298 289 284 270 265
290 298 303 308 314 315 317 317 319 318 318 322 309 205 244 124 300 280 271 251 2 39 355 319 271 269 130 169 276 285 259 307 24 344 338 306 315 328 287 295 295 289 275 271 262 259 267
278 285 292 302 315 319 323 324 324 325 324 333 311 280 242 235 266 272 259 271 329 335 302 260 288 326 292 26 292 320 296 87 335 350 330 311 300 305 291 319 280 345 325 294 253 270 288
272 276 281 296 314 320 323 325 326 328 323 326 262 270 98 243 261 246 257 13 305 145 291 273 306 274 288 300 308 313 335 317 50 335 319 305 301 312 302 280 323 294 258 139 299 354 317
278 279 281 291 311 319 322 322 327 335 332 302 289 269 92 257 253 225 283 81 17 263 197 263 276 288 282 320 295 302 284 357 16 330 321 337 319 294 292 291 340 313 27 5 322 311 324
276 273 274 272 288 305 311 316 321 336 359 319 284 295 129 252 268 236 116 260 266 268 249 267 264 229 312 284 298 281 322 335 320 320 3 338 307 308 289 273 44 337 352 203 270 258 218
270 267 267 270 268 286 298 306 313 320 335 299 279 282 166 211 277 284 307 269 266 169 278 272 285 301 271 267 271 274 273 287 295 308 44 277 262 272 288 304 314 274 228 257 284 299 5
272 262 264 263 261 266 281 292 303 307 314 288 246 19 5 286 119 314 295 298 282 250 196 264 264 244 273 297 292 286 291 308 315 319 299 306 283 289 291 290 284 291 300 289 278 278 161
301 262 254 255 255 259 268 282 300 306 313 259 302 333 40 275 271 277 236 256 258 270 238 272 232 283 319 284 288 297 310 307 305 305 295 302 292 283 283 276 268 264 262 267 282 280 310
302 286 252 246 243 250 255 271 277 294 317 285 68 255 269 283 260 251 271 259 280 324 278 262 294 295 278 312 340 314 297 284 276 273 281 288 289 282 276 290 290 278 275 307 303 331 328
312 306 259 241 237 244 248 259 267 277 270 301 316 295 273 274 266 283 300 271 280 278 281 294 278 282 288 327 306 280 269 265 260 274 275 281 260 276 272 291 277 353 356 345 322 312 335
302 310 296 240 229 239 245 250 254 267 270 278 301 271 281 277 280 292 263 262 274 269 251 257 265 272 289 288 279 277 281 250 7 269 253 263 268 292 274 271 275 36 23 347 358 28 18
297 296 300 256 229 231 238 238 242 250 254 273 269 296 279 289 265 352 301 275 284 295 276 244 227 268 275 267 269 263 270 308 310 214 293 268 213 252 293 279 274 29 37 344 314 280 25
290 293 287 289 225 227 232 236 235 229 228 260 296 244 275 270 274 285 260 304 321 296 278 281 256 271 217 252 258 264 276 105 280 261 331 263 218 243 281 275 288 20 336 341 300 15 25
288 290 284 296 220 218 224 228 229 226 209 241 267 231 279 283 285 288 273 272 263 237 271 51 271 194 259 249 263 269 277 47 282 279 271 298 284 348 328 300 297 350 324 342 38 49 44
278 285 290 303 216 208 217 223 225 224 203 226 266 197 263 265 294 316 290 292 269 278 289 287 304 298 332 294 346 317 296 336 322 308 343 266 342 331 326 300 341 350 352 35 31 72 61